Location: Bad Dürkheim
(49.4618°N, 8.1724°E)
Time: 05:13:49
(UTC+00:00)

Cosmos 540 Rocket - Pass Details

Date: 14 June 2025
Orbit: 736 x 748 km, 74.1° (Epoch: 12 July)

Event Time Altitude Azimuth Distance (km) Brightness Sun altitude
Rises 23:04:52 0° 333° (NNW) 3,195 8.0 -17.0°
Reaches altitude 10° 23:07:16 10° 329° (NNW) 2,265 6.9 -17.1°
Maximum altitude 23:12:14 53° 253° (WSW) 910 3.8 -17.1°
Enters shadow 23:14:32 30° 192° (SSW) 1,320 4.2 -17.2°
